|
Coronas F rocket - Orbit
|
Bear Branch Nature Center;
21:34:54
| Home | Info | Passes |
|
View from above orbital plane
|
View from above satellite
|
Ground track
|
The orbit data is extracted from the following two-line orbital elements,
1 26874U 01032B 13138.82469196 .00010988 00000-0 23483-3 0 3807
2 26874 082.4781 033.5524 0019960 052.3022 308.0032 15.44456361660300
| Epoch (UTC): | 18 May 2013 19:47:33 |
| Eccentricity: | 0.0019960 |
| inclination: | 82.4781° |
| perigee height: | 419 km |
| apogee height: | 446 km |
| right ascension of ascending node: | 33.5524° |
| argument of perigee: | 52.3022° |
| revolutions per day: | 15.44456361 |
| mean anomaly at epoch: | 308.0032° |
| orbit number at epoch: | 66030 |
The dashed part of the orbit path shows where the satellite is in the earth's shadow,
|
|